Theta_e
324 324 324 324 324 324 324 323 323 323 323 323 323 323 323 323 323 323 323 323 322 322 322 322 323 323 323 324 324 325 323 325 326 325 329 330 347 351 361 361 360 368 367 345 341 340 336 339 339 343 338 334 331 328 326 327 326 327 320 317 314 317 317 323 323 326 329 330 332 336 339 338 334 338 340 347 341 342 342 342 345 349 350 351 352 352 352 352
323 324 324 324 324 323 323 323 323 322 322 322 322 323 323 323 323 323 322 322 322 322 322 322 322 323 323 324 325 326 324 326 327 325 321 339 350 357 358 362 363 368 369 336 334 336 335 335 336 335 331 327 331 324 327 325 325 321 319 318 314 320 323 328 328 330 332 334 333 336 341 339 337 338 338 335 336 338 336 339 343 341 345 350 350 349 349 348
323 323 324 324 323 323 323 323 322 322 322 322 322 322 322 322 322 322 322 321 321 322 322 322 322 323 324 324 325 325 326 326 329 325 327 354 355 355 358 359 362 367 342 330 335 339 337 334 333 328 326 324 326 321 323 321 322 321 319 315 318 325 325 331 331 330 335 336 333 333 336 337 339 340 344 332 331 336 333 333 337 339 341 345 345 346 347 347
323 323 323 323 323 323 323 322 322 322 321 321 322 322 322 322 322 322 321 321 321 321 322 322 322 323 324 324 325 325 327 330 321 320 341 352 351 357 357 358 362 361 336 331 338 340 338 335 332 328 323 321 322 322 317 321 319 321 320 316 320 325 325 328 332 333 335 340 335 336 338 338 338 340 340 335 333 333 335 339 339 340 341 343 347 346 347 347
323 323 323 323 323 323 322 322 322 321 321 321 321 321 322 321 321 321 321 321 321 321 321 322 323 323 324 325 324 326 328 312 317 336 344 352 355 354 360 359 362 339 332 332 338 341 335 330 329 325 322 318 320 319 318 321 321 322 321 324 325 328 327 330 331 334 334 335 334 336 336 337 342 342 338 338 331 330 336 341 343 344 345 345 345 346 347 348
322 323 323 323 323 322 322 321 321 321 321 321 321 321 321 321 321 320 320 320 321 321 322 322 323 324 325 325 325 325 321 304 329 332 357 360 356 360 366 363 364 338 331 331 338 340 333 329 326 321 320 319 316 315 318 320 321 318 323 325 327 327 327 333 334 334 336 334 334 334 337 342 339 335 340 337 335 339 345 344 344 345 347 348 349 346 346 347
322 322 322 322 322 322 321 321 321 321 321 321 321 321 320 320 320 320 320 320 320 321 322 323 324 325 325 324 326 325 322 319 328 343 354 356 362 364 363 365 364 342 335 333 336 334 329 324 323 321 319 318 316 317 318 323 327 324 321 327 327 329 328 332 336 339 338 339 337 340 342 337 337 330 338 337 339 341 343 344 345 345 348 349 348 347 347 348
323 322 322 322 322 321 321 321 321 321 321 321 321 321 320 320 320 320 320 320 320 321 322 323 324 325 324 326 327 324 320 315 334 341 358 356 353 359 357 341 337 333 333 333 333 330 326 322 320 322 320 316 316 316 318 321 322 319 322 325 327 329 330 334 337 337 338 337 339 340 335 334 337 336 339 334 343 342 344 347 344 346 347 344 344 345 347 350
322 322 322 321 322 321 321 321 321 321 321 321 321 320 320 319 319 320 320 320 320 321 323 323 324 324 324 324 318 315 317 328 335 340 343 334 331 338 331 326 328 327 329 334 336 331 326 322 322 323 316 317 318 317 318 317 317 322 324 327 328 329 333 336 337 336 337 338 339 335 335 336 340 343 332 335 339 342 344 345 345 344 342 341 343 345 347 348
322 322 322 321 321 321 321 321 321 321 321 321 320 320 319 319 319 319 320 320 321 322 323 324 324 324 323 323 324 315 327 337 335 333 328 332 329 328 326 326 326 324 325 332 334 329 324 323 323 324 323 320 319 316 318 322 320 326 325 328 326 328 332 332 333 336 337 336 336 331 330 333 338 337 327 337 340 340 340 339 341 342 341 341 344 346 348 349
322 322 321 321 320 320 320 321 321 321 321 320 320 319 319 319 319 319 319 320 321 322 323 324 325 324 324 328 323 314 334 334 334 330 330 333 333 328 324 327 326 323 327 330 327 327 327 326 326 326 323 319 318 317 318 321 328 325 324 327 327 327 331 334 334 336 337 333 335 334 332 335 334 334 334 338 341 342 340 340 340 340 339 343 342 344 348 349
321 321 321 320 320 320 320 321 320 320 320 320 319 319 318 319 319 319 320 320 321 322 324 325 325 326 326 324 318 320 329 335 335 331 330 331 328 328 327 331 327 325 329 327 326 328 328 327 326 324 316 323 315 318 317 320 323 324 324 320 325 327 327 332 333 335 336 331 337 337 332 327 328 329 336 339 342 343 341 341 339 339 341 342 343 345 345 345
321 321 321 320 320 320 320 320 320 320 319 319 319 319 319 319 319 320 320 320 322 323 325 325 325 328 329 318 318 328 330 335 337 333 328 332 327 328 329 332 331 329 329 327 326 328 329 327 326 322 324 321 319 314 318 319 318 323 320 323 321 322 324 331 338 337 334 334 339 336 316 321 329 332 332 339 342 340 341 338 337 338 340 342 342 343 345 348
321 320 320 320 319 319 319 320 320 319 319 319 318 319 319 319 319 320 320 321 323 324 324 325 326 328 327 324 324 326 330 334 335 333 330 331 327 325 327 328 330 329 328 326 328 327 326 327 326 325 326 321 318 325 319 318 318 312 320 318 316 315 317 330 331 333 330 336 338 332 316 319 328 330 337 342 343 338 333 337 339 341 340 342 344 343 344 347
320 320 320 319 319 319 319 319 319 319 319 318 318 318 319 319 320 321 322 322 324 325 325 326 326 328 322 322 326 327 363 332 329 329 330 327 324 324 324 326 326 327 327 327 327 327 327 327 325 321 318 324 323 318 315 314 315 314 310 308 313 311 315 327 331 329 328 334 339 329 318 320 327 333 335 339 342 337 334 335 337 340 342 343 344 344 345 346
320 320 319 318 319 318 318 318 318 318 318 318 317 318 319 320 322 323 324 324 325 326 328 325 328 325 320 319 319 343 323 318 323 329 329 327 324 321 323 324 325 325 325 325 328 327 327 326 321 321 320 321 318 314 312 311 311 314 309 308 308 312 319 322 327 328 332 334 334 327 317 324 324 334 337 338 342 338 334 334 336 340 342 343 343 345 345 346
320 319 319 318 318 318 318 318 318 318 318 318 317 318 320 322 324 325 324 324 327 327 328 331 331 328 312 322 327 317 315 319 327 327 328 327 324 323 322 320 320 320 323 325 325 325 324 322 323 321 320 316 316 315 309 307 307 308 311 309 311 313 315 315 324 325 329 329 322 327 321 323 323 334 335 337 338 334 331 332 335 337 338 343 343 342 342 343
319 319 318 317 317 318 317 317 318 318 318 317 318 320 320 323 326 325 324 325 330 331 329 333 330 324 317 321 315 317 320 319 323 326 327 326 324 322 320 318 319 319 320 319 322 319 322 317 320 313 316 315 314 312 306 303 307 306 307 308 310 314 315 316 315 322 327 324 321 323 323 324 325 329 333 335 336 336 333 332 335 335 337 338 340 343 341 343
320 319 318 317 317 318 317 317 317 317 317 318 319 323 323 322 324 326 330 325 324 321 316 316 319 309 305 313 319 321 319 321 327 327 323 323 322 323 323 322 320 318 315 315 316 318 320 317 317 313 309 311 312 312 309 310 311 309 309 308 309 308 312 313 319 324 326 320 321 321 320 325 327 327 332 332 333 332 332 335 336 337 336 336 339 341 342 343
319 319 317 316 316 317 317 317 317 317 317 317 325 328 329 327 323 324 326 326 317 319 318 318 318 317 315 317 317 321 323 328 322 325 325 324 321 321 321 320 318 318 315 311 315 316 319 311 309 309 310 312 314 315 314 313 312 312 312 310 308 311 313 317 321 322 326 322 320 321 322 324 324 327 328 330 333 331 332 333 335 337 338 335 335 339 343 346
319 318 317 316 316 317 317 316 316 317 316 318 321 324 321 322 316 316 320 323 325 323 318 318 320 316 315 318 319 318 315 321 324 323 324 325 321 319 317 318 315 312 314 316 314 319 316 309 310 312 314 314 315 316 315 314 313 311 310 309 310 311 310 318 319 324 326 324 322 323 321 323 326 327 329 330 327 330 331 333 332 333 335 337 339 341 343 345
319 318 317 316 315 316 316 316 316 316 315 317 320 324 324 326 326 327 323 315 323 326 324 319 321 317 319 319 323 324 324 319 319 322 325 323 318 314 317 316 314 311 315 315 314 312 310 307 311 314 316 316 316 315 315 312 311 312 310 309 310 313 316 321 324 326 326 324 320 323 320 321 325 327 329 327 328 331 334 333 335 335 335 337 339 342 343 344
319 318 317 316 315 315 316 315 315 314 317 321 321 322 322 329 331 332 328 320 316 323 323 320 315 316 316 320 322 323 316 314 314 319 322 322 317 315 317 313 313 313 314 313 309 309 307 310 313 315 316 314 314 315 313 312 312 309 310 308 309 311 312 312 319 323 323 323 319 320 318 318 327 330 330 332 331 333 335 338 338 338 335 336 339 342 341 344
318 318 317 316 316 316 315 315 313 315 317 322 323 322 327 331 331 330 323 315 314 320 323 321 318 317 316 315 321 319 315 314 316 316 325 320 315 317 315 314 312 312 310 312 311 309 309 314 317 315 315 313 312 313 311 309 308 311 310 309 309 309 315 316 316 320 322 323 326 321 319 319 322 323 325 331 336 335 336 337 337 339 340 342 344 344 344 343
318 318 317 316 315 316 313 312 315 320 326 323 322 326 328 329 330 331 321 316 315 315 326 323 321 318 319 324 323 315 316 316 318 322 324 321 316 316 314 318 314 310 311 313 312 310 311 316 317 314 313 312 312 310 310 310 308 309 312 311 312 312 316 319 319 317 316 316 320 318 309 310 320 323 324 332 331 332 335 335 333 337 339 340 340 341 343 344
317 317 317 316 315 314 310 311 321 326 326 322 323 326 327 327 331 332 322 313 307 314 320 312 321 314 324 315 320 317 317 310 319 322 325 322 323 318 316 314 315 309 311 312 311 312 312 316 315 312 312 311 311 309 311 312 308 307 309 315 314 314 315 316 315 314 308 305 319 321 307 304 317 319 324 328 329 329 332 333 333 336 338 338 338 339 339 341
316 316 316 315 314 313 315 327 329 331 322 323 326 329 329 330 347 331 318 307 303 315 312 315 313 315 320 317 319 318 303 307 320 322 323 325 318 322 313 312 315 314 315 315 311 308 313 313 312 312 311 311 310 308 311 312 309 306 312 314 313 314 315 313 314 312 311 317 319 317 314 307 308 317 325 327 327 327 328 331 332 334 336 336 337 338 340 339
316 315 315 314 314 312 316 317 322 324 323 329 330 330 331 337 336 328 314 301 301 318 311 313 314 322 318 320 320 312 312 316 310 316 323 324 321 318 314 312 311 311 313 312 303 311 312 310 310 310 311 310 308 311 314 314 309 309 314 315 313 316 315 315 312 312 313 311 308 313 315 308 306 319 326 326 323 325 326 328 331 333 334 335 336 337 337 338
315 314 313 313 312 312 314 315 321 323 331 332 332 330 331 338 326 318 310 301 311 315 323 311 323 317 316 319 315 314 314 317 309 316 323 323 321 318 311 313 314 313 314 313 307 310 312 311 312 312 311 308 312 314 314 314 310 313 315 317 316 316 316 316 314 313 314 311 305 311 313 305 306 318 320 324 323 323 326 328 331 332 334 334 334 334 335 335
314 313 313 312 313 314 314 317 317 326 331 332 332 333 331 328 321 307 303 297 314 305 314 314 313 311 316 312 311 313 311 314 316 319 321 318 318 319 318 320 314 312 311 313 311 311 313 317 318 313 310 312 313 315 316 316 315 315 315 313 313 312 314 318 315 315 312 307 308 311 312 309 302 316 319 319 321 325 325 328 332 333 334 335 335 332 331 332
313 312 311 311 312 327 326 320 325 329 328 330 331 328 327 322 310 305 298 305 315 311 315 311 310 316 312 310 306 312 312 313 313 317 314 318 315 315 315 312 316 311 309 310 309 311 312 312 313 314 316 316 316 314 317 317 316 315 312 311 310 309 316 316 315 314 305 302 310 313 311 311 301 311 322 326 327 327 326 326 328 329 331 332 332 332 332 332
312 311 310 311 317 320 321 325 332 333 331 330 329 324 318 307 310 302 304 316 304 307 309 309 313 312 311 313 310 309 309 312 313 313 311 311 310 309 309 306 309 302 302 305 304 310 308 310 314 315 319 315 313 311 313 315 315 312 311 310 304 306 305 301 309 302 302 303 312 314 313 309 309 314 322 325 326 325 331 327 328 329 330 331 329 330 331 332
310 310 310 311 313 317 322 328 334 339 335 331 326 320 312 306 300 306 308 310 305 312 310 314 310 311 311 310 308 310 312 308 313 312 313 312 310 310 311 309 311 307 301 306 305 305 306 312 312 313 314 316 314 308 307 307 311 310 308 307 304 304 299 296 300 304 303 306 312 316 317 309 316 318 324 323 326 327 328 330 329 329 329 328 328 331 329 329
310 310 316 317 316 321 328 336 339 335 329 329 321 315 310 304 304 318 311 311 308 314 314 311 312 312 311 306 309 311 306 311 312 311 312 309 309 307 309 310 310 308 307 306 303 304 300 301 307 311 307 315 313 311 310 309 311 311 313 310 307 305 300 297 299 297 299 303 309 315 309 304 308 311 326 325 327 329 329 329 330 331 330 331 329 329 329 329
308 313 320 326 322 325 326 328 334 332 329 323 315 310 303 304 310 310 310 311 312 313 310 313 310 309 308 309 311 312 310 307 313 311 309 308 306 306 307 307 310 310 309 302 306 305 304 304 310 314 314 315 312 314 314 311 310 312 313 314 308 305 311 302 305 303 303 302 306 310 310 313 312 327 328 328 328 328 330 330 330 330 330 330 328 326 326 328
315 331 325 328 329 332 330 330 332 331 325 319 310 305 304 309 309 314 312 318 315 312 311 311 311 306 307 307 311 310 313 309 310 310 309 308 309 307 309 310 309 310 307 303 306 302 305 302 312 313 315 314 314 315 314 314 302 310 311 306 309 316 313 308 308 308 308 305 306 314 310 316 323 323 325 325 325 326 328 327 329 329 330 329 327 326 328 329
330 334 329 333 332 337 331 331 329 328 323 317 309 304 310 314 317 316 320 316 317 316 310 303 306 305 304 304 307 309 310 310 309 309 305 310 306 309 309 310 313 311 311 309 306 310 303 304 311 311 309 315 317 316 316 315 315 311 306 310 316 318 315 309 301 304 303 298 303 309 307 310 311 306 323 322 322 324 326 327 329 329 330 328 328 328 329 329
325 331 333 334 334 332 331 331 328 324 318 312 308 313 317 313 320 318 320 319 317 316 313 307 307 309 305 306 305 307 310 306 307 308 305 309 304 313 310 309 313 312 312 313 307 308 310 302 309 313 313 314 316 316 314 316 317 312 310 318 308 304 303 308 305 299 298 298 300 305 308 312 311 312 317 319 320 322 324 328 328 327 328 328 329 329 329 330
326 328 326 334 331 329 329 332 326 321 314 308 307 307 315 316 320 320 321 320 319 317 311 312 309 308 308 306 308 309 310 304 308 307 304 308 304 311 311 312 310 313 313 313 308 309 311 302 305 313 311 313 315 313 305 310 316 317 317 313 316 310 306 304 306 307 306 300 299 303 307 308 316 316 318 319 321 323 324 326 326 328 329 330 330 329 328 329
329 325 322 329 329 331 335 330 321 319 312 305 308 310 318 315 318 321 321 319 316 314 313 313 313 310 309 309 310 307 309 309 307 308 307 309 306 313 311 314 311 312 313 313 310 313 308 312 300 309 315 313 307 310 307 310 308 309 309 309 311 311 314 311 310 307 303 303 301 302 302 308 319 324 321 321 323 324 325 326 327 328 329 330 330 330 330 330
331 325 321 327 330 334 332 324 316 311 310 313 314 313 316 314 319 320 321 321 319 322 316 313 313 310 311 308 308 312 309 308 309 308 308 308 308 304 312 313 313 312 313 312 310 311 309 309 304 308 308 308 309 314 313 312 312 311 310 308 309 307 306 303 302 310 308 305 302 302 301 310 318 326 324 322 323 324 326 326 326 327 329 331 331 332 331 330
327 318 318 327 331 331 323 312 311 314 312 309 310 315 315 326 317 319 320 321 319 317 320 316 317 314 313 311 311 311 310 308 308 308 309 307 310 310 312 315 314 314 311 308 309 313 312 311 308 305 306 308 311 315 317 316 315 314 313 309 312 310 309 305 297 304 308 314 310 310 306 310 325 324 325 324 323 326 326 326 326 326 329 329 330 331 331 332
325 322 326 329 331 327 319 312 315 312 310 313 317 317 319 320 318 320 319 319 317 317 316 314 314 314 315 313 311 310 311 308 308 308 310 309 310 312 315 315 315 314 313 311 311 313 325 307 305 306 310 312 314 316 317 316 315 312 313 314 312 309 310 308 308 309 307 310 307 306 305 310 322 325 325 324 325 326 328 329 327 326 327 329 330 330 330 330
323 324 323 329 331 327 317 308 309 311 312 315 315 316 320 318 318 317 315 317 316 315 313 315 314 316 314 316 313 310 312 306 309 309 309 311 310 315 315 315 315 312 311 311 309 313 307 310 307 303 305 306 308 312 311 314 314 311 310 313 313 313 313 313 313 314 306 312 308 306 300 309 323 327 326 325 323 325 325 326 327 328 328 328 329 330 331 333
323 327 325 325 328 325 314 315 313 314 316 315 317 312 316 319 321 320 319 318 319 317 315 313 314 315 314 316 313 313 312 309 308 311 311 311 312 315 314 314 315 313 314 315 331 316 308 308 308 300 298 297 297 299 301 305 308 312 313 315 314 313 312 310 309 309 303 311 310 308 307 315 320 324 322 322 326 326 328 327 328 328 329 327 328 330 332 331
323 316 324 323 323 323 321 322 318 316 317 317 314 315 315 315 319 321 320 318 320 318 317 316 315 316 314 313 311 311 311 312 309 309 310 310 311 313 315 315 314 313 327 344 328 315 308 309 310 309 305 304 311 315 314 315 312 309 310 311 314 314 314 313 311 310 307 310 310 313 313 314 316 318 318 320 322 322 324 325 325 327 328 328 333 333 332 334
326 317 319 318 323 321 318 319 316 321 318 320 314 317 313 316 317 317 322 314 318 317 316 316 315 311 312 312 311 310 312 311 312 312 311 310 313 314 316 316 315 317 344 328 327 315 312 308 309 310 309 312 313 312 313 316 310 311 310 310 313 313 314 313 310 306 316 308 307 315 318 314 314 317 319 321 323 324 324 325 325 327 328 330 331 334 337 334
315 325 325 326 315 308 315 320 321 319 321 319 319 319 316 316 316 313 318 318 320 319 314 315 316 314 314 311 313 309 310 310 311 309 312 311 312 313 313 315 314 327 329 316 318 314 310 307 311 310 310 312 314 313 313 312 312 312 312 312 311 313 314 312 311 313 312 308 306 316 318 314 314 317 321 323 325 325 324 326 327 329 329 334 333 333 333 333
321 321 323 328 317 320 320 321 321 319 318 319 319 318 315 315 313 316 315 318 317 316 316 310 312 314 315 316 313 310 312 309 308 312 312 310 311 312 310 312 313 316 314 313 315 325 316 308 311 311 310 311 313 313 314 311 311 311 311 312 312 312 313 313 313 314 313 312 313 315 315 317 317 319 320 323 325 326 328 328 329 329 330 334 333 332 333 333
315 316 316 324 323 320 319 320 319 316 315 325 318 318 318 318 314 316 317 321 312 315 317 312 313 315 315 316 315 312 313 313 312 311 313 313 312 314 312 311 310 314 314 311 313 318 311 309 313 311 309 309 311 313 314 313 312 310 312 313 314 314 313 313 313 313 314 313 313 312 314 317 321 324 323 328 329 327 327 325 328 332 330 331 332 333 332 331
322 323 324 320 319 320 322 320 317 317 316 318 315 317 317 318 315 317 317 322 317 315 315 319 316 317 317 316 316 315 317 316 315 316 317 315 310 316 312 311 314 311 313 312 313 314 312 310 313 311 306 307 312 311 312 313 312 310 310 311 312 312 310 312 311 314 312 312 314 312 312 315 319 326 326 328 326 327 325 325 329 330 330 334 332 331 332 334
326 326 326 324 318 323 320 320 321 317 315 318 318 317 317 317 318 318 314 318 321 319 321 317 319 318 316 316 315 316 318 318 318 319 319 319 318 319 318 318 315 313 312 312 315 312 312 311 311 311 306 306 310 311 310 311 309 306 307 310 313 314 314 315 315 316 315 315 312 310 313 320 323 325 323 323 323 324 325 326 329 331 335 333 332 331 331 333
Wind_Speed
21 21 20 20 20 20 20 20 20 19 19 19 19 18 17 16 16 16 15 15 15 14 15 15 15 15 15 15 15 15 15 12 12 10 12 17 1 8 5 8 12 13 10 7 10 11 11 12 12 12 10 8 9 11 0 7 4 5 5 8 9 9 11 11 11 10 8 12 14 9 9 8 7 7 8 7 10 9 8 8 7 6 6 6 6 6 8 11
21 21 21 20 20 20 20 20 20 20 19 19 19 18 18 17 16 16 16 15 14 15 15 15 15 15 15 15 14 15 14 11 12 14 19 9 11 8 8 8 10 11 9 10 11 11 11 11 13 10 9 9 8 9 5 0 6 4 4 9 10 8 7 8 8 11 10 7 10 4 8 9 8 3 6 6 5 7 9 6 8 7 5 4 7 6 9 12
21 21 21 20 21 20 21 21 20 21 20 19 19 18 18 17 16 16 16 15 15 15 15 15 15 15 15 14 14 15 12 10 12 17 20 11 12 11 10 10 12 12 13 12 12 11 11 12 14 12 8 11 11 6 4 5 9 6 5 8 8 10 8 7 9 9 8 8 8 10 10 13 11 7 2 14 4 4 6 5 7 7 6 5 7 9 10 10
21 21 21 21 21 21 21 21 21 20 20 19 19 18 18 17 17 16 15 15 15 15 15 15 15 14 14 15 13 12 10 11 8 6 1 18 15 13 12 11 12 13 13 15 13 11 10 14 14 12 10 11 12 7 5 5 6 8 9 9 9 10 8 9 10 8 7 7 11 9 8 10 8 4 7 7 8 9 5 2 5 8 8 8 4 4 5 9
20 21 21 21 22 22 22 22 22 21 20 19 18 18 17 17 17 17 15 15 15 15 15 14 15 15 14 14 14 9 9 7 2 8 5 7 10 12 11 12 12 12 14 13 14 14 12 13 12 12 12 8 15 5 6 6 5 7 14 14 11 8 9 9 9 10 10 13 9 8 8 7 8 4 11 10 10 5 3 4 7 9 7 7 7 7 6 8
20 21 21 21 21 22 22 22 22 21 20 19 18 17 17 17 17 16 16 15 15 14 14 14 14 14 15 13 12 9 5 1 4 5 7 4 6 8 8 9 11 11 11 12 12 13 13 12 12 12 10 12 6 7 6 6 7 10 12 13 12 8 8 8 10 10 11 9 9 9 9 4 8 8 9 12 10 7 6 7 7 8 9 9 8 9 8 8
21 21 21 21 22 23 23 21 20 21 18 18 17 16 18 17 17 16 16 15 14 14 14 13 13 14 14 16 11 8 9 11 3 6 10 7 5 7 7 9 7 9 11 12 12 11 10 11 11 12 9 12 7 4 8 15 14 14 11 12 12 10 10 10 9 9 11 10 8 5 4 7 7 10 3 10 7 9 9 9 9 5 6 7 7 6 8 8
20 21 22 22 22 23 23 22 21 20 19 17 16 16 17 17 16 16 15 15 14 14 13 13 12 12 13 9 5 7 9 10 10 9 11 11 8 7 8 8 8 8 11 13 12 11 10 11 10 10 12 11 5 11 13 14 8 8 10 10 10 8 9 9 8 8 8 8 5 6 7 6 7 7 14 6 3 14 10 8 10 8 4 4 9 8 7 7
21 22 22 23 22 24 24 22 22 20 18 16 14 15 16 17 16 15 15 14 14 13 12 12 11 11 8 6 6 8 9 7 11 14 14 12 10 10 11 9 11 11 10 11 12 13 12 11 11 1 7 9 11 11 8 4 8 8 13 10 8 9 8 6 7 7 7 5 3 4 6 6 7 7 16 9 1 10 11 10 10 9 8 6 8 8 7 5
21 22 22 21 23 23 23 23 21 20 17 15 13 13 15 15 16 15 14 14 13 12 12 12 11 10 9 6 7 7 7 10 13 13 15 13 11 12 12 10 11 12 11 11 11 12 13 12 13 12 9 13 8 5 6 16 8 9 12 11 4 7 8 5 5 6 5 5 6 6 5 5 5 3 9 14 8 5 9 10 8 8 8 7 7 6 7 7
21 22 22 22 22 23 23 22 21 19 17 15 14 13 16 16 15 15 14 13 13 12 12 11 10 10 7 8 7 5 3 2 9 11 12 13 12 12 12 13 11 12 12 11 11 10 12 11 7 6 9 9 10 6 5 11 11 10 12 12 8 4 7 10 6 6 3 3 5 5 5 3 3 4 6 10 4 2 8 11 8 5 7 7 8 7 6 4
22 22 22 22 20 22 22 22 21 19 19 16 14 15 17 16 15 14 14 13 13 13 12 10 10 6 8 9 9 6 1 1 8 7 9 10 11 11 12 12 11 11 11 11 10 10 9 12 9 8 8 9 7 12 6 4 11 14 10 9 10 8 6 8 7 5 2 3 2 3 4 1 7 7 7 9 9 4 6 9 10 7 6 7 8 8 6 7
22 22 20 19 19 21 22 23 21 21 20 17 15 16 17 16 15 14 13 13 11 11 10 8 7 6 7 7 11 13 3 4 5 8 7 7 8 9 9 10 10 12 11 11 11 6 8 9 7 10 10 11 11 7 4 8 11 15 6 10 10 8 6 7 10 4 1 4 3 3 3 6 4 4 5 5 7 3 7 7 8 7 7 6 7 8 6 6
23 22 20 19 20 23 23 22 22 21 21 17 16 18 17 16 15 14 13 13 14 13 12 10 7 6 6 8 3 11 6 3 3 6 8 8 9 11 10 10 10 8 9 11 11 9 13 2 8 11 10 11 10 11 12 7 8 11 10 6 9 9 6 13 7 6 3 3 3 4 1 3 2 6 4 1 9 5 2 6 9 7 7 7 6 8 7 6
23 21 19 19 20 24 23 23 21 20 18 16 15 17 16 16 15 14 13 12 13 11 10 8 6 5 6 6 8 6 8 3 6 9 8 9 10 9 11 10 10 10 9 10 8 8 6 9 8 10 9 11 13 11 8 10 10 8 8 8 7 10 8 12 10 6 4 2 2 2 2 1 3 4 3 3 5 3 4 6 7 7 7 7 6 7 6 7
21 19 19 18 19 24 23 21 18 17 17 16 16 16 17 16 14 13 12 11 11 9 6 6 8 9 8 10 4 10 9 10 10 10 8 9 10 10 10 10 9 9 9 9 7 6 6 7 10 9 11 12 12 7 9 8 7 7 5 8 7 8 13 12 8 6 2 5 2 2 3 5 2 4 2 2 4 4 3 4 7 8 8 6 6 5 6 6
20 20 18 18 18 20 23 19 18 17 17 17 17 16 14 13 13 10 10 9 8 8 6 5 2 9 5 5 1 9 9 12 9 10 9 10 9 11 10 9 10 11 10 10 9 8 9 9 7 10 9 10 10 10 8 8 7 5 3 8 12 13 11 8 13 5 8 7 2 4 4 4 5 3 1 2 2 2 2 5 5 7 7 8 7 5 5 5
20 19 19 18 18 18 23 20 17 18 18 18 18 16 12 10 11 10 8 7 6 7 8 9 9 7 13 14 11 12 9 10 12 10 10 9 12 12 10 9 9 10 10 10 11 12 9 10 7 10 8 10 9 8 8 8 2 5 4 8 7 15 12 17 11 13 13 8 4 1 5 3 8 5 2 2 3 3 5 5 4 7 7 7 8 7 6 5
20 20 19 19 18 19 23 21 19 18 19 21 22 17 15 13 7 7 6 5 5 4 5 7 7 7 6 7 15 10 10 11 10 11 12 11 11 9 6 8 9 11 10 10 9 13 9 9 8 9 11 10 12 11 11 11 9 14 10 7 6 9 12 10 9 14 14 7 6 2 3 2 6 5 2 3 2 4 3 3 4 6 6 7 8 6 6 6
21 21 20 19 18 19 23 21 16 17 16 14 9 5 4 4 5 4 7 9 12 11 10 5 15 11 7 5 11 9 10 12 11 11 10 11 8 9 10 11 12 12 11 10 11 13 8 11 10 10 11 11 13 13 15 11 14 6 9 3 4 11 13 13 14 14 13 8 7 2 1 5 3 2 3 7 5 2 0 3 5 4 5 6 7 7 6 7
21 20 20 19 17 18 20 16 15 13 12 10 11 6 5 7 8 3 5 12 17 18 16 11 12 15 9 3 5 12 12 12 10 11 12 10 11 9 11 11 12 12 11 13 13 11 11 12 12 14 15 15 14 13 16 14 14 8 9 12 5 3 9 13 13 16 13 9 5 4 1 4 5 4 9 5 7 3 2 2 4 4 5 5 7 8 8 6
21 21 20 18 17 16 16 17 14 14 13 8 7 6 7 9 7 7 7 9 12 20 15 13 11 14 6 12 7 6 5 8 11 11 11 12 12 11 10 11 11 11 11 13 12 11 12 12 13 16 15 16 17 19 16 9 10 9 9 9 8 8 11 13 17 17 10 11 4 6 4 2 7 6 10 16 11 1 2 2 2 4 5 5 6 6 7 7
21 21 20 18 17 15 15 15 14 7 8 6 7 11 10 7 6 7 9 10 14 9 15 13 13 12 7 5 3 3 11 12 12 13 13 11 12 14 10 11 12 12 12 14 13 12 12 12 16 16 14 16 18 17 8 7 9 10 9 11 4 2 9 9 11 10 10 7 7 5 10 8 7 4 6 6 7 9 6 4 4 3 5 5 7 5 6 7
21 19 19 18 17 16 14 13 13 10 10 12 11 14 12 11 10 10 10 8 10 10 13 13 12 11 12 11 9 10 11 10 12 15 12 13 12 12 12 13 13 13 13 14 16 14 13 15 15 16 16 18 16 13 6 6 9 11 12 11 9 6 10 14 8 12 13 13 9 10 7 7 9 7 3 5 8 7 7 6 6 6 4 6 5 6 5 7
20 19 18 19 19 15 13 11 6 10 9 9 14 17 15 12 10 7 8 8 9 11 11 11 8 10 10 8 8 11 12 11 13 11 13 13 14 11 12 10 9 12 13 15 15 14 17 17 13 12 18 14 11 10 10 9 11 10 10 13 11 11 17 15 12 11 6 7 6 12 3 5 7 9 8 7 6 8 8 8 6 7 7 7 6 7 7 6
21 19 18 17 16 15 8 4 6 8 9 10 9 13 11 11 5 6 7 6 7 6 11 10 8 10 8 14 6 10 8 12 12 12 13 13 13 11 7 10 7 11 14 15 14 10 11 13 13 11 7 4 5 9 13 10 9 9 7 12 11 7 15 12 8 6 4 3 11 12 6 4 6 8 8 10 9 8 6 7 6 6 4 6 6 7 6 6
20 20 17 17 16 10 5 1 11 9 9 9 13 8 3 3 2 7 6 6 9 10 8 9 10 3 8 13 11 10 10 10 10 13 15 14 15 10 12 10 9 10 10 8 7 8 9 13 13 6 9 12 10 10 10 13 10 7 10 13 4 16 13 7 10 4 1 9 8 5 4 5 5 7 12 11 9 9 8 8 7 6 6 5 7 7 6 7
21 19 17 15 13 5 7 11 13 7 7 7 2 1 1 4 2 5 5 6 5 10 9 8 2 6 8 12 13 12 9 10 12 15 14 15 15 12 12 11 10 10 11 8 9 6 9 13 13 7 7 10 12 11 11 14 8 5 1 3 3 12 6 6 0 2 5 4 1 4 9 7 5 6 9 10 8 9 9 8 7 7 7 4 7 7 7 8
21 19 16 13 11 9 10 8 9 9 6 6 6 4 2 4 6 5 5 8 4 5 5 9 2 7 6 12 13 13 13 7 10 14 14 13 15 10 11 14 13 11 10 11 12 8 11 12 9 11 8 9 13 13 10 11 13 5 7 7 4 3 7 2 3 0 8 4 4 8 9 7 3 5 6 8 7 9 9 8 8 7 7 5 6 9 8 7
21 18 15 12 11 7 6 9 12 16 11 9 7 7 5 5 6 6 6 7 8 7 9 6 10 10 11 13 12 15 16 6 10 14 12 10 15 15 13 7 13 12 12 13 16 16 14 4 11 11 11 13 13 13 9 10 8 4 3 8 5 4 2 11 12 8 5 2 8 16 13 8 6 7 7 8 8 7 6 5 5 6 7 9 8 7 8 8
21 17 12 4 5 3 5 6 14 16 13 9 8 8 7 6 7 6 9 3 7 8 8 10 11 12 14 14 11 14 15 8 12 13 12 13 13 14 10 9 9 10 10 11 13 17 14 14 10 7 11 11 13 9 2 7 10 13 4 7 5 3 10 5 5 4 2 3 8 14 12 11 11 2 4 4 2 4 8 7 8 9 8 8 8 9 9 8
23 18 9 7 9 8 7 1 9 5 2 6 6 7 6 7 7 9 6 6 11 10 10 9 11 11 14 13 12 14 13 12 9 7 10 11 11 13 13 11 9 9 9 10 11 10 12 11 4 6 9 15 9 7 8 5 9 9 10 8 5 4 4 1 2 3 2 5 3 10 11 9 6 4 5 7 8 5 5 7 8 10 12 9 4 9 6 7
25 18 12 11 10 9 12 13 8 4 5 4 6 7 8 7 9 10 10 6 2 9 9 7 13 13 13 14 13 14 16 13 13 11 12 14 12 13 15 16 11 11 9 10 12 10 10 11 12 10 10 11 13 9 8 9 8 8 9 9 6 4 2 6 5 7 8 7 12 12 14 4 3 10 7 5 4 8 7 7 9 8 8 7 9 6 8 5
27 19 6 8 11 12 9 8 5 6 6 6 6 8 8 9 8 7 7 10 4 11 8 8 14 12 14 11 12 13 13 15 15 11 13 10 13 12 13 18 19 13 14 9 10 9 10 13 14 12 9 12 14 12 11 11 4 6 7 10 6 8 6 7 7 9 9 3 4 11 8 6 7 5 11 6 4 10 9 9 9 6 11 9 11 14 14 11
31 13 8 6 8 13 16 13 8 6 6 7 7 8 10 9 7 7 8 6 3 3 5 7 12 11 13 12 13 16 11 10 12 11 13 13 12 13 13 14 20 18 12 13 9 9 13 11 11 17 12 15 14 13 13 11 8 6 9 10 8 7 2 10 7 9 3 6 5 3 5 2 0 3 6 1 3 5 9 7 10 9 9 10 9 4 6 7
20 2 6 5 8 8 13 9 9 7 7 7 8 9 10 8 6 2 3 12 3 8 8 9 11 10 9 10 11 14 17 13 16 12 11 14 13 14 15 12 16 20 14 13 6 11 9 11 13 17 15 14 14 11 13 9 9 5 4 9 7 8 14 10 11 12 14 7 6 5 7 4 3 7 6 1 4 4 7 10 10 8 8 8 7 8 9 11
10 3 5 8 11 7 10 10 7 7 7 8 9 10 10 10 5 8 3 11 4 12 9 7 10 8 10 10 9 10 14 13 10 10 9 12 13 15 15 15 15 20 22 16 11 10 10 6 11 13 16 18 15 13 14 16 12 5 7 7 6 7 10 7 8 4 6 8 3 6 9 9 7 3 5 6 7 8 9 10 10 10 10 8 7 8 6 8
10 8 12 11 8 10 10 9 9 7 7 8 11 12 10 11 4 11 9 8 4 8 4 8 7 12 9 8 11 11 12 10 10 11 11 13 9 14 15 14 18 16 21 22 15 5 9 11 6 16 12 4 8 10 13 16 18 7 7 8 10 3 9 6 5 8 6 4 6 5 11 11 12 5 8 9 9 7 9 9 9 11 10 9 8 5 13 11
8 7 9 9 10 11 11 10 8 7 8 9 10 10 10 10 15 11 6 7 7 4 8 7 7 11 11 9 9 14 11 12 8 8 9 9 11 14 16 12 15 19 18 20 15 11 10 10 4 1 7 11 10 8 10 6 11 10 4 10 9 7 5 7 4 5 4 5 4 4 5 2 1 7 13 11 8 7 9 9 10 10 9 9 7 8 11 11
7 5 6 12 11 10 10 9 7 7 8 11 9 11 7 10 8 9 8 6 6 6 6 8 9 8 10 12 11 10 10 13 11 9 11 9 12 14 16 14 12 18 18 17 15 12 10 8 9 5 6 7 8 9 8 8 9 9 8 9 9 6 4 4 5 5 3 2 2 4 3 2 0 8 14 14 13 11 10 10 9 9 11 9 7 7 7 8
8 8 1 8 11 10 9 7 8 9 10 10 14 13 11 9 7 8 9 6 8 2 7 8 7 10 8 10 13 10 10 11 10 9 9 9 9 9 11 12 13 13 16 16 17 12 9 7 10 5 2 6 8 4 7 12 10 8 7 10 10 8 6 7 5 7 8 6 4 2 3 2 2 6 9 13 11 11 15 14 12 10 10 10 11 8 8 9
6 8 4 10 11 12 9 8 8 8 9 11 11 10 9 3 12 10 7 8 11 7 9 11 9 12 11 12 10 8 7 9 10 11 8 10 14 12 13 13 15 15 10 12 13 11 11 5 7 8 8 7 12 5 6 9 13 12 8 9 8 8 9 6 4 1 4 6 11 9 7 0 6 3 9 12 11 16 19 15 12 13 14 12 9 13 9 9
6 7 9 13 14 14 8 8 8 10 11 11 14 15 12 7 8 8 9 8 9 8 7 8 9 11 11 12 10 8 10 9 12 13 12 11 9 13 9 19 13 14 8 9 12 11 9 8 7 9 6 9 11 9 8 8 12 10 8 11 10 9 8 7 5 3 4 6 3 2 3 4 6 6 7 10 12 11 9 10 10 9 10 12 11 12 8 10
10 10 4 8 11 10 8 9 9 10 10 13 16 14 6 11 8 10 10 6 8 9 10 7 8 11 10 15 13 11 14 9 12 14 9 10 10 18 11 9 13 13 11 8 10 11 10 9 9 6 4 6 4 8 7 5 7 7 7 6 10 10 10 6 5 7 5 4 0 4 2 1 4 7 8 8 10 11 13 13 10 9 9 11 11 11 11 8
10 8 8 6 9 9 10 8 10 9 8 9 12 15 10 9 7 15 12 9 8 11 5 7 9 11 13 13 11 9 13 12 7 14 15 6 3 4 16 13 14 13 14 7 12 5 10 5 8 8 8 9 8 5 3 5 5 8 9 15 9 3 8 11 3 3 4 4 3 5 6 5 7 7 9 12 10 8 9 9 8 11 11 10 8 13 11 9
5 6 6 8 6 9 11 12 13 12 8 9 12 6 6 9 11 14 14 13 8 9 8 4 11 11 10 10 10 11 11 11 11 6 9 9 7 8 10 10 7 14 5 7 4 10 9 11 8 7 8 2 2 3 7 12 12 4 9 19 21 11 7 11 5 3 5 1 7 3 8 8 9 10 12 9 11 12 10 10 7 11 10 11 6 12 11 8
7 6 2 5 10 8 10 10 6 9 11 10 9 6 4 9 8 15 16 12 7 10 7 7 5 6 7 9 11 9 11 14 12 10 8 12 12 9 16 10 8 13 8 6 5 9 7 8 13 11 5 7 13 11 14 15 9 8 12 12 9 10 12 11 5 3 2 4 5 4 10 12 11 10 9 8 9 9 8 8 7 9 9 10 11 13 12 10
5 4 4 3 2 6 11 9 12 6 7 17 10 6 13 9 9 7 10 13 8 8 8 9 10 10 8 10 7 8 7 9 9 12 7 13 8 4 7 8 10 7 1 9 10 7 5 8 2 3 6 5 5 5 8 10 12 11 14 14 12 12 13 8 6 2 6 4 3 8 9 11 10 9 6 6 9 6 7 8 8 9 9 7 9 12 12 10
8 8 3 1 3 8 14 9 9 7 6 11 7 9 10 10 9 12 3 9 12 8 8 5 9 9 9 6 6 8 2 6 6 8 7 4 10 8 5 9 10 11 13 11 8 3 4 9 3 6 6 3 3 5 6 7 6 11 15 15 11 12 13 9 4 1 5 4 0 9 3 13 9 7 10 7 8 5 7 4 7 9 10 8 10 10 9 9
9 9 9 9 8 9 15 12 7 6 6 3 5 13 10 13 10 6 4 5 10 9 6 3 15 14 12 9 11 7 5 4 6 11 9 8 7 8 6 6 6 11 11 12 7 8 8 3 4 3 5 4 5 7 7 9 10 14 15 14 12 7 9 8 7 7 4 6 7 4 9 10 6 7 11 7 6 8 7 4 7 8 10 9 10 10 10 9
8 7 8 10 9 5 7 10 8 3 6 9 10 9 10 14 4 12 12 18 11 10 4 10 2 14 5 3 2 2 6 7 5 9 7 8 7 4 8 3 9 9 10 10 9 9 12 4 2 6 7 7 2 5 10 11 12 12 13 13 12 9 9 6 7 3 3 3 3 2 4 8 9 8 10 7 7 8 8 7 7 8 9 8 8 10 8 8
9 9 9 8 9 8 7 10 2 1 4 5 11 9 5 9 5 10 9 7 7 11 14 5 7 7 3 8 6 8 5 9 6 5 7 7 7 7 9 9 10 8 7 9 7 7 7 6 5 5 7 7 8 2 8 12 10 11 6 12 9 4 4 5 6 4 7 2 6 3 8 10 9 8 8 5 7 7 8 7 8 7 8 8 8 8 8 7
Wind_Direction
344 343 343 343 343 341 341 341 341 340 339 339 337 335 334 333 332 328 327 323 320 316 316 315 314 312 312 312 314 312 313 301 302 264 228 243 10 119 69 108 149 165 183 196 232 246 243 236 240 237 250 257 238 244 259 261 356 265 314 45 41 35 34 5 22 10 49 48 21 12 75 84 64 79 103 105 79 86 101 79 73 76 64 94 97 117 148 75
343 342 342 341 341 340 339 339 339 338 337 336 335 334 332 331 330 328 323 322 319 316 316 315 313 312 311 312 314 314 314 291 275 264 245 236 175 168 149 156 155 163 179 218 234 234 252 260 235 223 241 244 255 268 22 295 315 21 343 56 53 50 62 20 13 34 18 70 123 239 52 62 73 123 135 124 98 100 94 81 100 89 57 31 134 132 102 101
342 341 341 339 339 339 338 337 337 336 335 334 333 331 331 329 328 326 323 320 318 317 314 313 312 311 310 313 314 311 301 294 264 255 250 166 164 159 160 167 166 168 187 219 226 246 257 275 300 308 267 264 252 214 308 55 308 52 15 61 73 84 73 43 38 38 32 48 38 43 40 48 33 13 52 67 91 90 109 112 97 104 115 119 126 145 128 131
342 340 339 339 338 337 337 336 335 334 333 332 331 330 328 328 325 324 322 319 316 315 315 312 311 312 311 309 314 309 289 276 270 235 20 154 153 157 165 161 177 182 208 234 248 251 263 269 277 282 291 282 269 274 227 87 294 42 60 53 63 62 59 40 40 43 48 30 58 42 34 61 44 28 78 144 89 76 61 73 124 122 131 131 93 68 103 133
341 340 338 337 337 336 334 334 333 332 331 330 329 328 328 325 324 322 319 317 315 315 313 312 311 309 310 308 307 291 298 278 133 68 90 102 137 149 161 167 175 197 214 238 258 267 264 277 286 284 274 265 275 267 33 96 11 48 67 63 59 70 72 49 42 36 18 37 36 41 25 28 117 17 45 77 84 85 139 118 98 114 125 107 106 132 148 140
340 339 338 337 336 335 333 331 331 330 329 328 327 327 325 323 321 320 317 315 315 313 312 311 311 312 308 310 300 279 268 139 80 99 100 80 123 142 143 160 183 216 222 240 259 271 271 268 265 269 272 278 98 305 80 16 304 95 76 70 70 67 72 56 46 36 40 48 31 25 26 7 44 54 40 86 106 117 111 82 100 118 116 125 126 132 121 130
339 338 337 336 334 334 332 330 329 328 328 326 326 324 323 321 320 317 314 314 312 311 309 311 311 311 315 299 266 250 247 274 299 123 111 118 108 129 133 167 174 223 229 241 247 258 257 263 270 271 308 303 100 270 57 36 36 83 80 74 67 59 71 70 66 52 53 49 27 20 68 39 25 90 29 92 104 101 79 104 120 120 95 117 124 130 130 130
338 337 336 335 334 332 330 330 328 326 325 326 324 323 321 320 317 314 313 312 310 307 308 310 311 312 325 304 248 228 229 253 123 132 130 124 144 134 158 179 196 209 228 234 249 248 263 267 284 311 289 326 99 287 87 78 45 70 88 77 82 71 67 83 73 68 69 59 31 42 39 40 17 21 97 61 80 100 107 98 105 110 136 124 117 123 119 114
338 337 336 334 332 331 330 329 327 326 324 324 321 321 321 317 314 312 310 309 307 304 305 307 309 311 302 290 277 281 246 122 129 140 144 150 156 160 179 186 198 208 223 237 242 264 265 260 252 234 323 298 42 279 77 91 91 63 74 70 73 72 72 69 87 75 69 87 15 16 25 7 20 349 86 127 199 106 121 120 123 118 105 111 106 111 95 109
336 336 335 333 332 330 328 327 326 325 323 320 320 318 318 315 312 310 307 305 303 301 300 303 303 309 291 265 269 250 92 118 125 149 156 155 161 165 195 214 186 213 224 231 244 249 254 270 313 345 298 281 204 324 312 86 73 108 112 114 114 110 124 122 107 93 79 69 43 43 32 25 31 9 84 126 198 140 104 98 93 109 111 104 105 94 118 133
335 334 334 333 330 328 328 326 325 324 322 321 320 318 314 313 309 306 303 301 298 296 297 296 304 304 279 263 266 251 48 253 150 152 168 153 165 180 193 213 189 209 228 244 251 247 266 278 302 286 282 343 319 120 275 99 111 113 110 129 122 105 128 118 115 115 134 74 65 46 10 336 108 34 62 86 126 79 113 113 110 112 113 112 103 118 109 103
334 334 333 331 328 326 325 326 325 323 321 321 317 313 312 308 305 301 299 295 293 289 284 289 291 282 278 271 247 259 134 317 144 165 151 172 178 192 197 208 187 214 224 245 243 251 268 278 315 293 303 334 283 314 14 93 176 133 141 130 135 150 133 143 136 129 89 105 96 48 323 93 37 40 52 74 55 322 116 118 109 109 103 108 126 120 125 131
333 333 331 328 326 327 326 325 324 322 321 318 315 312 309 305 301 297 294 292 282 279 286 286 281 260 289 265 239 237 188 193 197 147 177 180 188 195 204 223 209 211 233 250 255 258 256 267 281 285 275 294 310 301 31 279 297 148 183 138 158 163 153 139 106 118 98 98 65 31 24 54 89 45 47 46 99 239 175 110 101 111 103 106 104 110 119 119
333 330 328 328 328 328 326 324 323 322 319 316 310 310 307 302 297 291 283 278 281 284 284 282 279 269 268 257 269 164 178 185 173 180 191 189 202 189 206 214 226 222 238 249 274 296 304 224 284 284 295 271 276 338 289 231 198 272 154 211 168 171 140 138 129 163 166 80 61 58 357 50 62 93 44 325 94 288 18 114 118 98 91 86 93 112 133 129
330 327 326 328 327 329 326 324 322 319 315 312 306 306 303 296 291 286 283 279 266 264 268 270 243 256 224 248 252 109 28 314 187 211 195 188 210 186 206 210 218 232 226 238 255 261 289 293 268 261 258 253 250 249 264 259 202 222 221 198 199 162 127 132 129 153 128 113 275 204 269 335 37 57 35 23 354 39 47 62 94 103 99 102 102 105 107 108
325 324 324 327 326 329 325 323 319 317 312 309 305 300 295 288 282 281 277 267 285 299 251 248 212 229 303 264 86 111 193 207 215 206 195 208 203 217 188 207 219 222 234 236 240 266 274 271 259 269 271 278 275 261 265 275 269 204 207 282 329 131 134 122 138 129 143 145 146 304 310 347 33 60 93 292 88 337 65 63 74 105 120 113 99 100 96 95
324 323 323 324 325 326 326 323 319 317 315 306 303 290 272 267 273 279 268 264 250 221 222 267 262 193 249 85 194 208 198 200 208 198 191 218 207 223 175 201 211 215 214 242 226 241 255 249 247 253 257 275 285 287 273 270 277 287 174 298 290 111 134 123 135 170 183 158 141 252 260 281 51 335 174 74 339 207 142 94 83 78 81 117 125 98 110 123
324 323 323 323 324 324 326 322 320 320 314 307 301 292 288 280 292 282 252 234 230 218 234 250 267 271 244 259 234 221 197 190 199 191 195 196 227 217 183 205 202 217 209 222 226 240 212 244 237 267 264 226 229 233 235 265 229 165 148 253 61 127 141 143 164 170 171 155 113 218 257 338 51 312 14 7 221 271 87 95 104 83 87 86 88 116 135 169
324 324 323 324 322 323 326 323 320 320 316 311 291 273 268 267 261 240 262 183 194 176 218 191 195 205 6 226 211 222 180 194 182 183 184 206 207 252 190 208 209 204 208 219 211 219 219 244 238 245 246 246 218 222 267 267 274 288 305 0 136 150 125 134 154 146 141 140 141 174 334 46 130 242 357 329 47 346 104 116 71 90 101 98 97 96 91 81
326 323 324 322 322 322 326 321 319 316 318 315 302 222 219 214 174 192 207 218 232 241 309 160 206 274 249 150 185 200 184 158 190 182 186 203 193 217 212 203 208 207 220 216 216 207 223 226 231 229 239 241 269 254 231 239 248 324 349 249 48 62 83 115 124 132 135 113 59 40 283 124 300 40 10 329 345 261 24 75 95 109 98 98 105 101 100 92
325 325 322 323 320 322 322 322 313 309 310 294 288 275 261 328 326 84 182 217 220 237 247 255 217 236 278 2 209 157 168 157 212 173 209 164 211 210 205 204 216 209 215 226 235 181 210 238 233 234 234 242 241 250 257 278 340 352 287 316 121 131 92 115 125 125 135 118 101 110 327 270 158 154 104 317 345 316 64 118 127 108 90 103 106 115 107 99
325 324 324 321 321 320 323 318 320 311 294 273 269 250 275 301 356 330 304 284 229 222 236 241 244 238 219 282 76 133 155 184 205 189 201 166 196 219 161 208 209 223 203 224 234 233 195 226 237 242 242 248 247 253 260 330 306 292 276 263 70 76 111 118 117 123 128 105 125 163 166 83 280 151 163 165 207 254 122 233 83 117 126 98 95 106 114 122
325 324 321 323 320 324 323 320 311 317 295 226 228 238 254 281 335 330 309 283 280 237 221 218 225 237 225 222 221 220 211 212 199 198 185 183 181 219 172 198 208 228 214 207 227 226 229 209 227 231 253 261 258 259 339 312 258 265 269 257 92 157 168 140 114 139 116 98 136 102 75 299 275 280 183 149 142 148 156 175 139 77 109 129 114 113 115 108
323 321 321 320 324 324 321 321 309 279 234 228 245 249 264 306 314 330 307 281 294 258 208 207 221 216 224 201 190 207 226 203 221 189 177 185 207 199 232 191 219 218 225 206 224 242 235 231 209 215 218 223 250 272 274 246 259 223 232 255 164 255 70 108 129 114 107 96 112 120 152 207 206 217 199 150 157 147 148 156 140 146 126 97 95 89 99 109
323 322 320 324 323 328 327 317 275 225 211 217 246 256 262 281 292 318 315 291 240 252 182 217 198 209 207 211 181 210 202 240 211 206 167 191 209 191 224 197 229 215 231 220 212 232 255 266 293 257 204 217 235 277 251 241 226 240 238 267 163 151 106 117 132 127 135 139 165 129 211 216 188 206 192 170 176 165 168 157 166 142 148 117 113 112 100 92
325 323 322 321 324 326 352 304 219 211 200 217 235 233 233 248 307 350 289 275 267 178 142 218 144 190 200 183 148 221 197 233 197 213 166 191 228 231 183 247 200 222 218 241 228 219 244 248 232 254 320 282 237 243 253 226 275 284 47 40 111 126 117 128 136 144 177 210 162 175 225 227 180 205 191 183 173 167 150 163 152 141 136 127 120 112 108 108
324 323 322 321 321 329 281 12 348 292 226 239 229 249 196 192 60 282 273 222 248 153 182 107 186 102 238 159 185 192 208 209 181 218 176 175 221 216 257 220 186 256 251 231 239 236 224 250 251 231 246 247 240 230 240 267 253 235 104 236 204 128 142 152 161 186 258 91 119 200 187 257 247 207 192 187 171 158 171 174 167 140 168 169 125 117 136 128
324 323 322 318 311 274 267 327 311 268 245 18 11 2 210 30 298 256 258 274 212 148 173 155 308 121 234 146 203 195 240 149 189 200 195 159 219 188 236 245 241 210 221 273 257 202 210 225 257 260 201 240 240 243 227 208 253 289 214 257 260 64 77 98 222 204 5 32 151 211 221 238 265 134 171 184 168 182 182 167 161 174 148 170 140 132 144 130
323 322 320 313 305 267 261 260 298 269 346 348 347 287 314 168 261 270 260 274 100 190 29 160 154 177 202 167 200 219 233 169 215 166 170 162 201 238 204 243 271 267 232 221 250 234 179 255 237 245 242 221 243 236 256 253 236 235 299 174 247 136 97 246 241 302 87 86 297 263 208 256 259 143 176 184 197 191 180 174 176 169 160 150 149 171 123 109
322 321 321 312 297 226 232 227 242 247 293 307 324 295 295 284 249 238 219 255 141 192 184 99 192 177 194 175 196 208 227 190 227 127 165 202 179 230 260 254 228 245 262 217 237 260 278 205 260 223 217 234 226 227 230 249 276 105 201 329 254 204 130 54 34 56 57 108 256 251 249 248 256 186 189 176 206 186 157 168 161 177 155 173 176 116 149 128
320 318 312 292 250 268 187 225 234 238 246 273 284 276 260 234 247 255 238 47 213 110 141 152 179 172 195 190 191 195 223 175 214 153 187 194 195 206 230 241 263 276 246 249 233 236 236 259 238 233 255 243 247 293 1 288 294 309 341 233 225 91 48 58 72 52 110 252 261 270 257 205 264 86 180 164 26 201 154 166 175 165 171 198 159 167 123 129
319 313 286 232 257 318 245 80 12 337 259 256 274 247 222 226 207 243 249 115 260 143 199 173 185 183 193 196 210 178 208 194 201 197 202 184 201 194 206 240 174 231 231 234 231 232 234 226 278 243 237 268 271 266 255 189 238 242 255 258 239 48 302 230 188 273 222 236 156 93 50 32 5 325 247 163 176 158 132 167 187 172 190 180 159 110 146 171
317 313 286 239 240 240 254 268 292 332 298 259 243 231 224 245 228 210 235 189 140 163 178 178 170 188 190 192 213 175 206 220 165 194 232 178 219 199 205 223 209 208 237 193 245 201 224 236 215 226 218 213 255 245 225 231 196 228 230 234 227 146 205 274 250 242 243 187 148 106 87 89 323 324 304 159 142 131 146 147 213 191 142 147 157 159 157 154
313 315 282 192 205 227 259 296 293 282 253 227 229 220 245 246 244 257 272 236 135 206 122 196 156 192 189 199 207 178 191 229 167 192 202 199 201 220 203 209 233 207 242 252 232 207 226 198 226 226 214 179 213 241 268 289 279 224 234 257 235 211 220 232 234 255 250 286 123 126 132 183 164 173 252 150 180 143 162 192 183 169 146 189 136 209 133 92
311 293 233 223 214 236 238 249 265 269 261 223 220 232 227 229 238 241 238 224 160 91 176 170 170 193 186 215 214 181 225 192 183 193 191 225 199 226 207 202 210 241 221 239 226 254 228 255 217 197 243 169 208 201 241 253 259 262 281 286 228 209 246 247 269 279 308 134 104 54 31 107 128 346 269 196 123 180 152 181 162 168 166 153 187 115 114 148
304 156 172 230 216 226 201 214 229 236 233 218 228 222 231 235 252 253 344 296 293 240 188 169 193 192 192 202 226 208 177 263 165 213 198 216 218 210 224 206 204 209 231 234 194 230 211 236 247 171 215 198 192 203 195 246 253 72 292 247 267 172 199 231 236 236 258 256 125 145 129 80 352 313 243 195 163 161 157 175 170 167 159 168 157 161 156 146
334 279 215 216 224 184 169 190 192 205 223 238 233 233 226 235 222 327 258 256 341 294 153 215 175 219 189 192 207 217 175 210 204 195 223 192 227 217 213 222 205 199 226 238 219 243 266 237 215 183 187 224 180 182 205 184 227 200 238 292 297 259 283 276 290 312 273 272 73 161 130 142 173 207 184 172 181 187 182 178 154 174 171 179 163 193 133 127
308 280 271 261 175 152 164 175 186 196 222 234 239 258 285 297 345 212 251 250 222 252 313 232 155 227 191 211 194 201 175 214 165 182 260 174 244 191 217 226 196 215 209 226 261 260 312 300 228 175 190 163 131 265 241 208 190 228 209 205 230 199 225 213 258 277 316 303 144 195 159 171 193 139 170 173 197 179 177 165 180 177 168 181 162 160 107 116
269 274 274 203 139 159 161 163 196 199 216 232 238 243 237 251 236 251 243 255 294 289 236 234 277 182 250 193 227 181 187 202 201 198 231 167 233 166 221 217 200 202 216 221 224 242 258 283 270 206 185 205 224 177 253 219 181 174 205 262 284 276 271 291 245 269 244 306 325 61 299 239 245 164 170 173 191 192 190 188 191 176 173 188 167 187 143 132
274 255 239 130 149 149 155 173 191 217 229 233 225 240 245 234 250 238 242 249 224 239 232 270 238 255 216 254 225 180 182 228 198 201 225 150 233 153 217 193 242 183 214 218 239 224 248 198 265 185 241 310 234 163 222 238 234 200 203 245 262 254 307 284 245 269 284 345 327 120 157 258 23 154 168 165 171 183 199 201 201 185 185 179 185 188 161 148
291 270 179 157 146 152 167 187 215 214 231 239 251 260 231 250 237 219 254 225 272 239 290 220 228 245 253 237 250 218 163 221 228 219 200 186 221 164 231 205 221 228 189 215 226 227 246 233 246 135 189 258 285 172 211 231 251 264 227 212 217 247 248 253 312 343 307 284 242 174 178 298 111 166 172 160 172 183 199 197 194 190 178 173 186 202 174 175
297 279 146 164 151 172 185 204 215 234 235 235 232 218 246 240 274 288 267 245 237 254 198 275 243 239 243 247 262 194 198 185 222 241 185 248 174 259 159 227 198 238 193 204 218 216 247 278 266 223 161 225 265 267 221 262 276 286 234 240 259 240 226 243 255 263 281 17 3 31 70 43 259 211 175 179 184 190 193 191 186 180 188 174 190 183 166 135
276 304 115 175 164 186 217 240 240 225 226 238 246 238 260 249 264 259 259 244 251 217 248 215 246 247 239 259 244 205 222 193 214 229 180 221 214 201 198 181 206 226 230 200 213 224 198 257 258 261 230 187 199 274 270 257 277 285 314 326 325 311 357 327 313 308 307 86 60 121 131 206 185 204 206 208 188 178 161 170 174 204 162 150 203 169 145 151
320 296 243 170 182 206 234 244 230 226 232 230 241 272 274 289 269 242 232 232 247 176 233 206 221 241 248 253 259 219 174 239 176 253 216 186 233 206 163 171 180 219 216 189 214 170 236 175 274 303 225 253 219 170 261 270 292 278 280 219 234 250 260 297 294 326 275 85 150 82 134 77 235 203 225 227 213 168 156 162 189 160 148 165 187 159 152 154
294 267 268 182 195 210 238 243 255 280 274 300 312 260 251 235 318 303 294 269 241 260 201 214 232 183 233 243 246 265 160 231 172 215 272 208 222 73 112 225 157 230 200 199 199 159 224 222 184 237 254 242 222 276 307 294 309 349 338 304 243 258 287 277 69 19 350 307 288 126 146 158 167 210 218 209 131 129 149 157 172 165 169 156 177 150 140 147
279 289 17 295 220 221 242 262 280 288 309 310 291 281 5 300 283 292 291 264 271 237 246 202 228 211 227 240 229 220 194 181 251 179 219 238 150 195 128 223 179 232 133 15 242 217 205 237 229 201 250 305 107 151 273 275 261 262 326 307 295 278 237 251 244 83 159 281 64 128 155 154 160 204 213 192 154 154 173 162 177 157 157 165 151 121 143 146
294 290 22 313 324 286 262 231 251 345 345 306 268 316 237 215 245 287 269 257 203 266 226 253 248 219 226 243 260 218 221 173 201 274 207 258 188 179 156 197 202 225 48 235 216 254 232 214 226 189 226 153 170 155 219 245 270 220 238 281 279 269 279 290 296 185 96 290 119 220 136 167 177 197 179 158 145 144 161 163 171 148 160 166 139 135 145 156
325 13 10 338 317 302 308 306 328 316 359 322 309 292 267 272 298 310 288 251 257 229 266 192 253 225 201 224 250 255 214 264 184 221 223 210 271 161 129 194 215 190 19 238 219 237 260 245 29 338 193 222 190 215 227 254 251 257 266 265 275 285 270 248 264 275 160 303 78 150 187 177 185 159 112 130 118 153 159 170 169 158 144 147 150 154 154 161
346 340 345 142 293 276 276 287 309 329 344 338 307 281 253 259 249 254 282 317 296 209 241 303 254 214 246 189 239 247 104 314 205 214 245 217 268 114 235 163 226 199 205 238 227 184 256 258 224 210 248 204 273 225 211 266 267 250 259 272 275 264 272 271 248 228 288 296 33 155 124 97 130 143 150 147 159 173 134 136 142 142 146 150 152 162 166 166
7 341 337 332 312 308 284 292 297 318 52 149 294 290 310 277 283 271 240 238 277 279 183 8 268 232 213 209 197 218 275 277 351 329 307 327 301 272 202 188 186 195 191 217 228 180 224 183 181 165 246 222 221 270 284 236 245 262 270 268 258 272 290 291 305 284 271 294 271 107 111 84 44 87 113 116 107 105 123 150 143 139 148 153 164 165 184 183
339 341 326 311 303 264 287 284 288 4 60 311 276 275 305 289 322 352 321 293 289 282 170 188 333 348 147 229 28 138 182 204 242 318 305 176 252 20 304 135 254 183 180 204 214 192 183 207 173 228 227 230 48 297 269 257 236 246 264 270 265 254 251 261 271 333 288 149 235 148 192 127 138 129 112 132 136 150 147 169 141 141 156 149 168 172 178 192
339 337 319 311 289 290 284 277 330 315 101 260 272 297 284 299 303 264 268 255 186 235 254 70 9 48 335 121 65 36 92 176 230 265 300 270 252 276 199 244 229 236 164 234 201 216 171 225 232 226 229 232 166 228 287 285 287 265 290 309 324 285 299 316 310 44 274 339 297 30 66 124 116 123 127 146 161 160 148 170 137 144 141 159 172 183 179 188